This is the latest recevied weather packets stored in our database for station/object KQ7A. If no packets are shown the sender has not sent any weather packets the latest 10 day(s).
| Time | Temp. | Humidity | Pressure | Rain* | Wind** | Luminosity | Snow |
|---|---|---|---|---|---|---|---|
| 1777831466 | 16.67° C | 61% | 1014 hPa | 0 mm | - | 421 W/m² | - |
| 1777831163 | 16.67° C | 62% | 1014.3 hPa | 0 mm | - | 503 W/m² | - |
| 1777830861 | 16.11° C | 67% | 1014.3 hPa | 0 mm | - | 577 W/m² | - |
| 1777830556 | 15.56° C | 69% | 1014.4 hPa | 0 mm | - | 537 W/m² | - |
| 1777830254 | 15.56° C | 66% | 1014.5 hPa | 0 mm | - | 511 W/m² | - |
| 1777829949 | 15.56° C | 68% | 1014.4 hPa | 0 mm | - | 417 W/m² | - |
| 1777829645 | 15.56° C | 64% | 1014.6 hPa | 0 mm | - | 392 W/m² | - |
| 1777829342 | 15.56° C | 66% | 1014.6 hPa | 0 mm | - | 528 W/m² | - |
| 1777829040 | 15.56° C | 66% | 1014.5 hPa | 0 mm | - | 665 W/m² | - |
| 1777828735 | 15.56° C | 69% | 1014.4 hPa | 0 mm | - | 543 W/m² | - |
| 1777828433 | 15° C | 66% | 1014.6 hPa | 0 mm | - | 609 W/m² | - |
| 1777828130 | 15° C | 66% | 1014.4 hPa | 0 mm | - | 549 W/m² | - |
| 1777827826 | 14.44° C | 66% | 1014.5 hPa | 0 mm | - | 534 W/m² | - |
| 1777827523 | 14.44° C | 66% | 1014.6 hPa | 0 mm | - | 451 W/m² | - |
| 1777827221 | 14.44° C | 68% | 1014.8 hPa | 0 mm | - | 377 W/m² | - |
| 1777826917 | 14.44° C | 67% | 1014.7 hPa | 0 mm | - | 413 W/m² | - |
| 1777826614 | 13.89° C | 67% | 1014.8 hPa | 0 mm | - | 390 W/m² | - |
| 1777826310 | 13.89° C | 68% | 1014.7 hPa | 0 mm | - | 358 W/m² | - |
| 1777826008 | 13.89° C | 69% | 1014.7 hPa | 0 mm | - | 490 W/m² | - |
| 1777825705 | 13.89° C | 68% | 1014.7 hPa | 0 mm | - | 448 W/m² | - |
| 1777825403 | 13.33° C | 73% | 1015 hPa | 0 mm | - | 497 W/m² | - |
| 1777825100 | 13.89° C | 70% | 1015.1 hPa | 0 mm | - | 365 W/m² | - |
| 1777824796 | 13.89° C | 69% | 1014.7 hPa | 0 mm | - | 485 W/m² | - |
| 1777824493 | 13.33° C | 70% | 1014.8 hPa | 0 mm | - | 446 W/m² | - |
| 1777824189 | 12.22° C | 74% | 1014.8 hPa | 0 mm | - | 386 W/m² | - |
* Rain latest hour (hover to see other rain measurements)
** Current wind speed in m/s (hover to see current wind gust speed)